Voltar ao catálogo

ARIANE 5 R/B

AtivoHEO
NORAD 39218·ROCKET BODY·🇫🇷 France

Lançado Jul 25, 2013 de Guiana Space Centre

Loading…

Próximas Passagens (próximas 24 horas)

TLE

AtualizadoSource: Space-Track

Época: Sep 14, 2026, 11:31 UTC

1 39218U 13038D   26257.48003208  .00024436  00000-0  10924-2 0  9992
2 39218   3.0403 142.4565 6513057   8.5186 358.7335  3.35103335128187

Acompanhe ARIANE 5 R/B em tempo real com AllMySat

Download on the App Store